Torna al catalogo

SL-16 DEB

AttivoLEO
NORAD 22370·DEBRIS·🇷🇺 Russia

Lanciato Dec 25, 1992 da Baikonur Cosmodrome

Loading…

Prossimi Passaggi (prossime 24 ore)

TLE

AggiornatoSource: Space-Track

Epoca: Sep 14, 2026, 09:27 UTC

1 22370U 92093BK  26257.39405894  .00000471  00000-0  29292-3 0  9990
2 22370  70.9746  47.8214 0106194  78.1708 309.9016 14.07216763725028

Traccia SL-16 DEB in tempo reale con AllMySat

Download on the App Store